RH
8 9 9 9 8 8 9 8 8 7 7 6 6 5 4 4 4 3 3 3 3 3 3 2 3 2 2 2 2 3 2 2 2 2 2 2 2 2 2 2 3 3 4 5 5 6 7 7 7 8 8 7 6 7 8 9 10 13 20 26 28 29 31
9 9 9 9 8 8 8 7 7 7 6 6 5 5 4 3 3 3 3 3 2 3 3 2 3 2 2 3 2 2 2 2 2 2 2 2 2 2 2 2 2 2 3 4 5 5 6 7 7 7 8 8 7 7 7 9 9 10 13 19 25 31 33
10 9 9 8 8 7 7 7 7 6 6 5 5 4 4 3 3 3 3 3 2 2 3 3 3 2 2 2 2 2 2 2 2 2 2 2 2 2 2 2 2 2 2 3 4 5 5 6 7 7 8 8 8 7 7 7 8 10 12 14 18 25 31
9 9 8 8 7 7 7 7 7 6 5 5 4 4 4 3 3 3 2 3 3 3 3 3 3 3 3 3 2 3 2 2 2 2 2 2 2 2 2 2 2 2 2 3 3 4 5 6 7 7 8 8 8 7 6 6 7 9 11 13 15 18 23
9 9 8 8 8 7 7 7 6 6 5 5 4 4 4 3 3 3 3 3 3 3 3 3 3 3 3 3 2 2 2 2 2 2 2 2 2 2 2 2 2 2 2 3 3 3 4 5 6 7 8 8 8 8 7 7 7 8 10 12 14 15 17
9 9 8 8 8 7 7 7 6 6 5 5 4 3 3 3 3 3 3 3 3 3 3 3 3 3 2 2 2 2 2 2 2 2 2 2 2 2 2 2 2 2 2 3 3 3 3 4 5 6 7 7 8 8 8 8 7 7 8 10 11 13 15
9 9 9 8 8 8 7 7 6 6 5 5 4 3 3 3 3 3 3 3 3 3 3 3 3 3 2 2 2 2 2 2 2 2 2 2 2 2 2 2 2 2 3 3 3 3 3 3 4 5 5 6 7 9 10 10 9 8 7 8 9 11 13
9 9 9 8 8 8 7 7 6 5 5 4 4 3 3 3 3 3 3 3 3 2 3 3 3 2 2 2 2 2 2 2 2 2 2 2 2 2 2 2 2 2 2 2 3 3 3 3 3 4 4 4 5 8 10 10 9 8 7 7 8 10 12
9 9 9 9 9 9 8 7 6 5 4 4 4 3 3 4 3 3 3 3 3 3 3 3 2 3 2 2 2 2 2 2 2 2 2 2 2 2 2 2 2 2 2 3 3 3 3 3 3 4 4 4 5 5 7 9 9 9 8 7 7 8 10
10 10 10 10 10 10 8 7 5 5 4 4 4 4 4 4 3 3 3 3 3 3 3 3 3 2 2 2 2 2 2 2 2 2 2 2 2 2 2 2 2 2 2 2 2 3 3 3 3 4 4 4 4 5 5 6 7 9 9 8 8 8 9
12 11 11 11 10 9 8 6 5 4 4 4 4 4 4 4 3 3 3 3 3 3 3 3 3 3 2 2 2 2 2 2 2 2 2 2 2 2 2 2 2 2 2 2 2 3 3 3 3 4 4 4 4 4 4 4 5 6 8 8 8 8 9
12 12 12 11 10 9 7 6 5 4 4 4 4 4 4 4 3 3 3 3 3 3 3 3 3 3 3 2 2 2 2 2 2 2 2 2 2 2 2 2 2 2 2 2 2 3 3 3 3 3 4 4 4 4 4 4 4 4 6 7 8 8 9
13 13 12 11 10 8 7 5 5 5 4 4 4 4 4 4 4 3 3 3 3 3 3 3 3 3 3 3 3 2 2 2 2 2 2 2 2 2 2 2 2 2 2 2 2 2 2 3 3 4 4 4 4 4 4 4 5 4 4 5 6 7 8
13 13 13 11 10 8 6 5 5 5 5 4 4 4 4 4 4 3 3 3 3 3 3 3 3 3 3 3 3 2 2 2 2 2 2 2 2 2 2 2 2 2 2 2 2 2 3 2 3 3 4 4 4 4 4 4 4 4 4 4 4 5 7
14 14 13 12 10 8 6 5 5 5 5 4 4 4 4 4 4 4 3 3 3 3 3 3 3 3 3 3 2 3 2 2 3 2 2 2 2 2 2 2 2 2 2 3 3 2 2 2 3 3 3 3 4 4 4 4 4 4 4 4 4 4 5
14 14 13 11 9 7 6 5 5 5 5 5 4 4 4 4 4 3 3 3 3 3 3 3 3 3 3 3 3 3 3 3 3 3 2 2 2 2 2 2 2 2 3 3 3 3 2 2 3 3 3 3 3 3 4 4 4 5 5 5 5 5 5
15 14 12 10 8 6 5 5 5 5 5 5 5 4 4 4 4 4 4 3 3 3 3 3 3 3 3 3 3 3 3 3 3 3 3 3 3 2 2 2 2 3 3 3 3 3 3 2 2 3 3 3 3 3 3 4 4 4 5 5 5 5 5
15 13 11 8 7 6 5 5 5 5 5 5 4 4 4 4 4 4 4 4 3 4 4 4 3 3 3 3 3 3 3 3 3 3 3 3 3 3 3 3 3 3 3 3 3 3 3 3 2 2 3 3 3 3 3 3 4 4 5 5 5 5 5
14 13 10 8 6 6 5 5 5 5 5 5 5 4 4 4 4 4 4 4 4 4 4 4 4 3 3 4 4 4 4 4 4 3 3 3 3 3 3 3 3 3 3 3 3 3 3 3 3 3 3 3 3 3 3 3 3 3 4 5 5 5 5
13 12 9 7 6 6 5 5 5 5 5 5 4 5 4 4 4 4 4 4 4 4 4 4 4 4 4 4 4 4 4 4 4 4 3 3 3 3 3 3 3 3 3 3 3 3 3 3 3 3 3 3 3 3 3 3 4 4 4 4 4 5 5
12 11 8 7 6 6 6 6 6 5 5 5 5 4 4 5 4 4 4 4 4 4 4 4 4 4 4 4 4 4 4 4 4 4 4 3 4 3 3 3 3 3 3 3 3 3 3 3 3 3 3 3 3 3 3 3 4 4 4 4 4 4 5
11 9 8 7 6 6 6 6 6 5 5 5 5 5 4 5 5 4 5 4 4 4 4 4 5 5 5 5 4 4 4 4 4 4 4 4 4 3 3 4 3 3 3 3 3 3 3 3 3 3 3 3 3 4 4 4 4 4 4 4 4 4 4
10 9 8 7 6 6 6 6 5 6 6 5 5 5 5 5 5 4 5 5 5 5 4 4 5 5 5 5 5 4 4 4 4 4 4 4 4 4 3 4 3 3 3 3 3 4 4 4 4 3 3 3 4 4 4 4 4 4 4 4 5 5 5
9 8 7 7 7 6 6 6 6 6 6 6 6 5 5 5 5 5 4 5 5 5 5 5 5 5 5 5 5 5 5 5 5 4 4 4 4 4 4 4 4 4 3 3 4 3 4 4 4 4 4 4 4 4 4 4 4 4 4 5 5 5 5
9 8 7 7 7 6 6 6 6 6 6 6 6 5 5 5 5 5 5 5 5 5 5 5 5 5 5 5 5 5 5 5 5 4 4 5 4 4 4 4 4 4 3 4 4 3 4 4 4 4 4 4 4 4 4 4 4 4 4 5 5 5 6
8 8 8 7 7 7 6 6 6 6 6 6 6 5 5 5 5 5 5 5 5 6 5 6 6 5 5 5 5 5 5 5 5 5 5 5 4 4 4 4 4 4 4 4 4 4 4 4 4 4 4 4 4 5 4 4 4 4 5 5 5 5 5
8 8 8 8 7 6 6 6 6 6 6 6 6 6 6 6 5 5 5 5 5 6 6 6 6 6 5 5 5 5 5 5 5 5 5 5 5 5 5 4 4 4 4 4 4 4 4 4 4 4 4 4 4 4 5 5 5 4 5 5 5 6 6
8 8 8 8 7 7 6 6 6 6 6 6 6 6 6 6 5 5 5 5 5 6 6 6 7 6 6 6 5 5 5 5 5 5 5 5 5 5 5 5 4 4 4 4 4 4 4 4 5 5 4 5 5 5 5 5 5 5 5 5 5 5 6
8 8 8 8 7 7 6 6 6 6 6 6 6 6 6 6 6 5 6 6 6 6 6 7 7 6 6 6 6 6 6 6 5 5 5 5 5 5 5 5 5 4 4 4 4 4 5 5 5 5 5 5 5 5 5 5 5 5 5 5 5 5 5
8 8 8 8 7 7 6 6 6 6 6 6 6 6 6 6 6 6 6 6 6 6 7 7 7 7 6 6 6 6 6 6 6 6 6 5 6 5 5 5 5 5 5 5 5 5 5 5 5 5 5 5 5 5 5 5 5 6 6 6 6 6 5
8 8 8 8 7 7 6 6 6 6 6 6 6 6 6 6 6 6 6 6 6 7 7 7 7 7 6 6 6 6 6 6 6 6 6 6 6 6 6 6 5 5 5 5 5 5 5 5 6 5 5 5 5 5 6 6 6 6 6 6 6 6 6
7 8 8 7 7 7 6 6 6 6 6 6 6 6 6 6 6 6 6 6 7 7 7 7 7 7 7 7 7 7 7 7 7 7 7 6 6 6 6 6 6 6 6 5 5 5 6 5 6 6 6 6 6 6 6 6 6 6 6 6 6 7 6
8 8 7 7 7 6 6 6 6 7 7 6 6 6 6 6 6 6 6 7 7 7 8 8 7 7 7 7 7 7 7 7 7 7 7 7 7 6 6 6 6 6 6 6 5 5 6 6 6 6 6 6 6 6 6 6 6 6 6 7 6 6 7
8 7 7 7 7 6 6 6 6 7 7 6 6 6 6 6 6 6 6 7 7 7 8 8 8 7 7 7 7 8 8 8 8 8 8 7 7 7 7 7 7 7 6 6 6 6 6 6 6 6 7 7 6 6 7 7 7 7 7 7 7 7 7
8 7 7 7 6 6 6 6 6 7 7 7 6 6 6 6 7 7 7 7 8 8 8 8 8 8 7 7 8 8 8 9 9 8 8 8 8 8 7 7 7 7 7 7 7 6 6 7 7 7 7 7 7 7 7 7 7 7 7 7 7 7 7
7 7 6 6 6 6 6 6 6 7 7 7 6 6 6 7 7 7 7 7 8 8 8 8 8 8 7 8 8 8 9 9 10 9 9 9 8 8 8 8 8 8 8 7 7 7 7 7 7 7 7 8 7 8 8 8 7 7 8 8 8 8 8
Wind_Speed
101 101 101 101 101 100 100 100 100 101 101 101 101 101 100 98 96 96 95 94 94 95 96 97 97 98 99 100 101 102 103 105 106 106 105 103 102 101 103 105 108 110 113 118 123 127 130 132 133 134 136 137 136 137 139 140 141 141 142 143 145 147 149
101 101 100 100 99 98 98 98 98 99 99 98 97 97 96 95 93 92 91 91 91 91 92 92 93 93 94 94 95 96 98 100 101 102 102 102 101 100 100 102 104 106 108 113 119 123 126 130 133 134 135 137 138 137 137 138 139 140 142 143 144 146 148
100 100 99 98 97 96 96 96 97 97 97 95 94 93 92 91 91 90 89 88 88 88 88 88 89 90 90 90 90 92 93 95 97 98 98 99 99 98 99 100 101 102 105 108 113 119 122 126 130 133 135 137 138 138 137 136 137 139 141 143 144 146 147
98 98 97 96 95 95 95 95 95 95 94 93 92 90 89 89 89 88 87 86 85 85 85 85 85 86 87 87 87 88 90 91 93 94 95 96 96 96 97 98 98 99 101 104 108 114 118 122 126 130 133 136 138 139 138 136 136 137 140 142 144 145 147
97 96 95 94 94 94 94 93 93 93 92 91 90 89 88 88 87 85 84 83 83 82 83 83 83 83 83 84 84 86 87 88 89 91 92 93 94 94 94 95 96 98 99 101 104 109 115 119 122 125 130 134 137 138 138 137 136 137 138 140 142 144 146
95 94 94 93 92 92 93 92 92 91 90 89 89 88 86 85 84 83 82 81 80 80 80 80 81 81 81 81 82 83 85 86 87 88 89 90 91 92 93 93 94 96 97 98 101 105 110 115 119 122 125 129 132 135 137 138 138 138 138 139 140 142 143
93 92 92 91 91 91 92 91 91 89 88 87 87 86 84 83 82 81 80 79 79 78 78 78 78 79 80 80 80 81 82 84 85 85 86 88 89 90 91 92 93 94 95 97 98 100 104 110 115 119 122 123 126 131 135 138 138 138 138 138 139 140 141
90 89 89 90 90 90 90 90 89 88 87 85 84 83 82 80 80 79 78 78 77 76 76 76 77 77 78 78 78 79 80 81 82 83 84 85 86 87 89 90 91 92 93 95 96 97 100 104 109 114 118 120 122 126 131 135 137 138 138 138 138 139 140
87 87 87 88 88 89 89 88 88 86 84 83 82 81 80 79 78 77 77 76 75 74 74 74 75 75 76 76 76 77 78 79 80 81 82 82 83 84 86 88 89 90 91 92 94 96 97 100 104 109 113 116 120 124 127 131 134 136 137 137 137 138 139
86 86 86 86 86 87 87 87 85 84 82 81 80 79 78 77 77 76 75 74 73 73 72 72 73 74 74 74 75 75 76 77 78 78 79 79 80 81 83 85 86 87 88 89 91 93 95 97 100 104 108 112 117 121 125 127 129 132 134 135 135 137 139
85 85 85 85 85 85 84 84 83 82 80 79 78 76 75 75 75 74 73 72 71 71 71 70 71 72 72 73 73 74 74 75 75 76 76 76 77 78 80 82 83 84 85 86 88 90 92 94 96 100 104 108 113 118 121 124 126 128 131 133 133 134 137
84 84 84 84 83 83 82 82 81 80 79 78 76 74 73 73 73 73 71 70 70 69 69 69 69 70 70 71 72 72 73 72 72 73 74 74 74 75 77 79 80 82 83 84 85 87 89 91 93 97 101 105 109 113 117 120 123 124 126 129 131 132 134
82 82 82 82 82 81 81 80 78 78 77 76 74 73 71 71 71 70 69 69 68 68 67 67 68 68 68 68 70 70 70 69 69 70 71 71 71 72 74 76 78 79 80 81 82 84 86 88 90 94 98 102 105 109 112 116 119 122 123 126 128 130 132
81 81 81 81 80 80 79 78 76 76 76 74 72 71 70 69 69 68 67 67 66 66 66 65 66 66 66 66 67 67 66 66 67 68 68 69 69 70 70 72 74 76 78 78 79 81 83 85 87 91 96 99 102 104 108 112 115 118 121 122 124 127 129
79 80 79 79 78 78 78 76 74 73 73 72 71 70 68 67 66 65 64 64 64 65 64 64 64 64 64 64 64 64 64 64 65 66 66 67 67 67 68 69 71 73 74 76 77 78 80 82 85 88 93 97 99 101 104 107 111 114 117 119 121 123 126
78 78 78 78 77 77 76 75 72 71 71 70 69 68 66 65 64 63 62 62 62 63 63 62 62 62 62 62 62 62 62 62 62 64 64 65 65 65 66 67 68 69 71 73 75 77 78 80 82 85 90 93 96 98 101 103 106 109 112 115 118 120 122
77 77 77 76 76 76 75 74 71 69 69 68 67 66 64 63 62 62 61 61 61 61 61 61 60 60 60 60 60 60 60 60 61 61 62 62 62 63 64 64 65 66 67 70 73 75 77 78 80 83 86 90 93 95 98 100 102 104 108 111 114 116 118
76 76 76 75 75 74 74 72 70 68 67 66 65 64 62 61 61 60 60 60 60 59 59 59 59 58 58 58 58 58 58 58 58 59 59 59 60 61 62 62 63 63 64 66 68 71 74 76 77 80 83 86 89 91 94 97 100 101 104 107 109 112 114
74 75 75 74 74 73 72 71 68 66 66 65 64 63 61 59 59 58 59 59 59 58 57 57 57 56 56 56 56 56 56 56 56 57 58 57 57 58 60 60 61 61 62 63 65 67 70 72 74 76 78 81 84 87 90 93 96 99 101 103 106 108 110
72 73 73 73 72 72 70 68 67 65 64 64 63 61 59 58 57 57 57 58 58 56 56 55 55 55 54 54 54 54 53 54 54 55 56 56 56 56 57 58 59 59 60 60 61 64 67 69 71 72 74 76 79 82 84 88 92 96 98 100 103 104 107
71 71 72 72 71 70 69 66 65 64 63 62 62 60 57 56 56 56 56 57 57 55 54 53 53 53 52 52 52 52 51 52 52 53 54 54 54 55 55 56 57 57 58 58 59 60 63 66 68 69 70 72 75 77 80 83 87 91 94 97 100 102 104
69 70 70 70 69 68 67 65 64 63 61 60 61 59 56 55 55 54 54 55 56 54 53 51 51 51 51 50 50 50 50 50 50 51 52 52 52 52 53 54 55 55 56 56 57 58 60 62 65 66 67 69 71 74 77 79 83 86 89 93 96 99 102
68 68 68 68 68 67 65 63 62 61 60 59 59 58 55 54 54 53 52 53 54 53 52 50 49 48 49 49 49 48 49 48 49 49 50 50 50 50 51 51 52 52 53 54 55 56 57 59 62 63 64 66 68 71 73 76 79 82 85 88 91 95 98
68 67 67 67 67 66 64 62 60 59 58 57 58 56 54 53 53 52 51 51 51 52 51 49 47 47 47 47 47 47 47 47 47 47 48 48 48 48 48 49 49 50 50 51 52 53 55 57 59 60 61 63 65 68 70 72 75 78 81 84 86 90 93
67 66 66 66 65 64 63 60 59 58 56 56 56 55 53 53 52 52 50 49 49 49 49 48 46 45 45 45 45 45 46 45 45 45 46 46 46 46 47 47 47 48 48 49 50 51 52 54 56 58 59 61 62 64 66 68 71 74 77 80 83 85 88
66 65 65 65 64 63 61 59 58 57 55 54 54 54 52 52 51 50 50 48 47 47 47 46 45 44 44 43 44 44 44 44 44 44 44 45 45 45 45 45 46 46 46 47 47 48 50 52 54 56 57 59 60 61 63 65 67 70 73 76 79 82 84
65 64 63 63 62 61 59 57 56 56 54 53 53 52 51 51 50 49 49 47 46 45 45 45 44 43 43 42 42 42 43 42 42 42 42 43 43 44 44 44 44 45 45 45 46 46 47 49 51 53 55 56 58 59 60 62 64 67 69 72 75 78 81
64 63 62 62 61 60 58 56 54 54 53 52 51 51 50 50 49 48 47 47 45 44 43 43 42 42 42 42 41 41 41 41 41 41 41 42 42 43 43 43 43 44 44 44 44 45 46 47 49 51 52 54 55 57 58 60 62 64 66 69 72 74 77
63 62 61 60 60 58 57 55 53 53 52 51 50 50 49 48 48 47 46 46 44 43 42 41 41 41 41 41 41 40 40 40 40 40 40 40 41 41 42 42 42 42 43 43 43 44 44 45 47 48 50 52 53 55 56 57 59 61 64 66 69 71 74
62 61 59 59 58 57 56 54 52 52 51 50 49 48 48 47 46 45 45 45 44 43 42 41 40 39 39 39 40 40 39 39 39 40 40 40 40 40 41 41 41 41 42 42 42 43 43 44 45 46 48 49 51 53 54 56 57 59 61 64 66 68 71
59 59 58 57 57 56 54 52 51 50 50 49 48 47 47 46 45 44 44 43 42 42 41 40 39 38 38 38 39 39 38 38 38 38 39 39 39 39 40 40 40 40 40 41 41 42 42 43 43 45 46 47 49 50 52 54 55 57 59 61 63 65 68
58 57 57 56 56 56 53 51 49 49 49 48 47 46 46 45 44 43 42 42 41 40 40 39 38 38 37 37 37 38 38 37 37 37 38 38 38 38 38 39 39 39 39 39 40 40 41 41 42 43 44 45 47 48 50 52 53 55 57 58 60 63 65
58 57 56 55 55 54 53 50 48 48 48 47 46 45 45 44 43 42 41 41 40 39 39 38 38 37 36 36 36 36 36 36 36 35 36 37 37 37 37 37 38 37 38 38 39 39 40 40 41 41 42 43 44 46 48 49 51 53 54 56 58 60 63
57 56 55 54 54 53 51 49 47 46 47 47 45 43 43 43 43 42 41 40 39 38 38 37 37 36 35 35 35 35 35 35 35 34 34 35 35 36 36 36 36 36 36 37 37 38 38 39 39 40 40 41 42 44 45 47 49 50 52 54 56 58 60
56 56 54 53 53 52 50 48 46 45 46 46 44 42 41 41 42 41 40 39 38 38 37 36 36 35 35 34 34 33 33 33 34 33 33 33 33 34 35 35 35 35 36 36 36 37 37 38 38 38 39 40 40 42 43 45 46 48 50 52 54 55 57
56 55 53 52 51 50 49 47 45 44 44 44 43 42 40 40 40 40 39 38 37 37 36 36 35 34 34 33 33 32 32 32 32 32 32 32 32 32 33 34 34 34 35 35 35 36 36 36 37 37 38 38 39 40 41 43 44 46 48 50 52 53 55
Wind_Direction
290 289 289 288 288 287 287 286 285 284 283 283 283 282 282 280 279 278 277 275 273 272 271 270 268 267 265 264 263 263 262 262 261 261 260 259 257 254 251 249 247 246 244 244 244 244 244 244 244 244 245 245 244 242 240 239 239 238 238 237 237 237 237
290 290 289 289 288 287 287 286 285 284 284 284 284 283 283 282 281 279 278 276 275 273 272 271 269 268 266 265 264 263 262 261 260 260 259 258 257 255 252 250 248 246 244 243 244 244 243 243 243 243 243 244 245 243 242 240 239 238 238 238 237 237 237
290 290 290 289 289 288 287 286 286 285 285 285 285 285 284 283 282 281 279 278 276 275 273 272 270 269 267 266 264 263 262 261 260 259 258 258 256 255 253 251 249 246 244 242 242 243 243 242 242 242 242 243 244 244 243 242 240 239 238 238 238 237 237
291 291 291 290 290 289 288 287 287 287 287 287 287 286 286 284 283 282 281 279 277 276 274 272 271 270 269 267 266 264 263 262 261 260 259 258 257 255 253 252 250 247 245 243 241 242 242 242 241 241 241 242 242 243 243 243 241 240 238 237 237 238 238
292 292 292 291 291 290 289 289 289 289 289 289 288 288 286 285 284 283 281 279 278 276 275 273 272 270 269 268 267 265 264 262 261 260 259 258 257 255 254 252 251 249 246 244 242 241 241 242 241 241 240 241 241 242 243 243 242 241 240 238 237 237 238
293 293 292 292 291 290 290 290 290 290 290 290 289 288 287 286 285 283 282 280 278 277 275 274 273 272 270 269 267 266 265 263 262 260 259 258 257 256 254 252 251 249 247 245 243 241 240 241 241 241 240 240 241 241 242 242 242 242 241 240 239 237 237
294 293 293 292 292 291 291 291 291 291 290 290 289 288 288 287 285 284 282 281 279 278 276 275 274 273 271 270 268 266 265 264 262 260 259 258 257 256 254 253 251 249 247 246 244 242 240 240 240 241 240 240 240 240 240 241 241 241 241 241 240 239 238
294 294 293 293 292 292 292 292 292 291 291 291 290 289 288 287 286 284 283 281 280 279 278 276 275 273 271 270 268 266 265 263 262 260 259 257 256 255 254 252 251 249 247 246 244 242 241 240 240 240 240 240 240 239 239 240 240 241 241 241 241 240 239
295 294 294 293 293 293 292 292 292 292 292 291 291 290 289 287 286 284 283 282 281 279 278 276 275 273 272 270 269 267 265 263 262 260 259 258 256 255 254 253 251 250 248 246 245 243 241 240 239 240 240 239 239 239 239 239 240 240 241 241 240 241 240
296 295 294 294 293 293 293 292 292 292 292 292 291 290 289 288 286 285 283 282 281 279 278 276 275 274 272 271 269 267 265 264 262 261 259 258 257 256 254 253 252 251 249 247 245 243 242 240 239 239 239 239 239 239 239 239 239 239 240 240 240 240 240
297 296 295 294 294 293 293 293 293 293 293 292 291 290 289 288 286 285 284 283 281 280 278 277 275 274 273 271 270 268 267 265 263 262 260 258 257 255 254 253 252 251 249 248 246 244 242 241 240 239 238 238 238 238 239 239 239 238 239 239 239 239 239
297 296 296 295 295 294 294 294 294 294 293 292 291 290 289 288 287 286 284 283 281 280 279 277 276 274 273 272 270 269 267 266 264 262 260 258 256 255 254 253 252 251 249 247 246 244 242 241 240 239 238 238 238 238 238 239 239 239 238 238 239 239 238
297 296 296 296 295 295 295 295 295 294 293 292 292 291 289 288 286 285 284 283 282 281 279 278 276 275 274 272 271 269 268 266 264 262 260 259 257 254 253 252 251 251 249 248 246 244 243 241 240 239 239 238 238 238 238 238 239 239 239 238 238 238 238
298 297 296 296 296 296 295 295 295 295 293 293 292 291 289 288 286 285 284 283 282 281 280 279 277 276 275 273 271 269 268 266 264 263 261 259 257 255 253 252 251 250 250 248 247 245 243 241 239 239 239 239 238 237 238 238 238 239 239 239 238 237 238
298 298 297 297 296 296 296 295 295 295 294 293 292 290 289 288 287 286 285 284 283 282 281 279 278 277 275 273 271 270 268 266 265 263 262 260 258 256 254 252 251 250 249 248 247 245 243 241 240 238 238 238 238 238 237 237 238 238 239 239 239 238 237
299 298 298 297 297 296 296 296 296 295 294 293 292 291 290 289 287 286 285 284 283 282 281 280 279 277 276 274 272 270 269 267 265 264 262 261 259 258 255 253 251 250 249 248 247 245 243 241 240 238 238 238 238 237 237 237 237 237 238 238 239 238 238
300 299 298 298 297 297 297 296 296 295 294 293 292 291 290 289 288 287 286 285 284 283 282 280 279 277 276 274 273 271 270 268 266 265 263 262 260 259 257 255 252 250 249 248 247 246 245 242 240 238 238 237 237 237 237 237 237 237 237 238 238 238 238
300 299 299 298 298 298 297 297 297 296 295 294 292 291 291 290 289 288 287 285 284 283 282 281 279 278 276 274 273 272 270 269 267 266 264 262 261 260 258 256 254 252 249 247 247 246 246 244 242 240 239 238 237 237 237 237 237 237 237 237 237 238 238
300 300 299 299 299 298 298 298 297 297 295 294 293 292 291 290 289 288 287 286 284 283 282 281 280 278 276 275 273 272 270 269 268 266 265 263 261 260 258 257 255 253 251 248 247 246 245 245 243 242 241 240 239 238 237 237 237 237 236 236 237 237 238
300 300 299 299 299 299 298 298 298 297 296 295 293 292 292 291 290 288 287 286 285 284 283 281 280 278 277 275 273 272 270 269 268 267 265 264 262 260 259 258 256 254 253 250 248 247 246 245 244 242 241 240 240 239 238 237 237 237 237 236 236 237 237
301 300 300 299 299 299 299 299 298 297 296 295 294 293 292 291 290 289 287 286 285 284 283 281 280 278 277 275 274 272 271 269 268 267 265 264 262 261 259 258 257 255 253 251 249 247 246 246 245 243 241 240 239 239 238 237 237 237 237 237 236 236 236
301 301 300 300 299 299 299 299 298 298 297 295 294 293 293 291 290 289 287 286 286 285 283 281 280 278 277 276 274 273 272 270 268 267 266 264 263 261 259 258 257 255 254 252 250 248 247 246 245 244 242 240 239 238 237 237 236 237 237 237 237 237 237
302 301 301 300 300 300 300 299 299 298 297 296 294 293 293 291 290 289 287 286 286 285 284 282 280 278 277 276 274 273 272 270 269 268 266 265 263 262 260 258 257 256 254 252 250 249 247 246 245 244 243 241 240 238 237 237 236 236 236 236 237 237 237
303 302 302 301 300 300 300 300 299 298 297 296 294 293 293 291 290 289 287 286 286 285 284 282 281 279 277 276 275 273 272 270 269 268 267 266 264 262 261 259 258 256 254 253 251 249 247 246 245 244 243 241 240 239 238 237 237 236 236 236 236 236 237
303 303 303 301 301 300 300 300 299 298 297 296 294 293 292 291 290 289 287 286 285 284 283 283 281 279 277 276 275 274 272 270 269 267 266 266 264 263 261 259 258 257 255 253 251 249 247 246 245 244 243 241 240 239 238 237 237 236 236 236 236 236 236
304 303 303 301 301 300 300 300 300 298 297 296 294 293 292 291 290 289 288 287 285 284 283 283 281 280 278 276 274 273 272 270 269 267 266 265 264 263 261 260 258 257 256 254 252 249 247 246 245 244 243 242 241 239 238 238 237 236 236 236 236 236 236
304 303 302 301 301 301 301 301 300 298 297 296 294 293 292 291 290 289 288 287 286 284 283 283 282 280 279 277 275 273 272 270 269 267 266 265 264 263 262 260 259 257 256 255 252 250 248 246 244 243 243 242 241 240 239 238 237 236 236 236 236 236 236
304 303 302 302 301 301 301 301 300 298 297 295 294 293 292 291 290 289 288 287 286 284 283 282 281 280 279 278 276 274 272 271 269 268 266 265 264 263 262 260 259 257 256 255 253 251 249 246 245 244 243 242 242 241 240 239 238 237 236 236 236 236 236
304 303 303 302 302 301 301 301 299 298 296 295 294 293 292 291 290 289 288 288 286 285 284 283 281 280 278 277 276 274 273 271 270 269 267 265 264 262 261 260 259 257 256 255 254 252 249 247 246 244 243 243 242 241 240 239 238 237 237 236 236 236 236
303 303 303 303 302 301 301 301 300 298 296 295 294 292 291 290 289 288 288 287 286 285 284 283 282 280 278 277 276 275 273 272 271 270 268 265 264 262 261 259 258 257 256 255 254 252 250 248 246 245 244 243 242 241 240 240 239 238 237 237 236 236 236
303 303 303 303 302 301 301 300 299 298 296 295 294 292 291 289 289 288 287 286 286 285 284 283 282 280 278 277 276 275 274 273 271 270 268 266 264 262 261 259 258 256 255 254 253 252 251 249 247 245 244 243 242 242 241 240 239 238 237 237 237 236 236
304 304 304 303 302 301 300 300 299 298 296 295 293 292 290 289 288 288 287 286 285 284 283 283 282 280 278 277 276 275 275 274 272 270 269 267 264 262 260 259 258 256 255 254 252 251 250 249 247 246 244 243 243 242 241 240 239 238 237 237 236 236 236
305 305 304 303 302 301 300 300 299 297 296 294 293 291 290 289 288 288 287 286 285 284 283 282 281 280 278 276 275 275 275 274 273 271 268 267 264 262 260 258 257 256 254 253 252 251 250 249 248 246 245 243 242 242 241 240 239 238 238 237 236 236 236
305 305 304 303 301 300 300 300 299 297 295 293 292 291 289 288 288 288 287 286 285 284 283 282 281 280 278 277 275 275 274 274 273 271 268 266 264 262 260 258 257 256 254 253 252 251 250 249 248 247 245 244 242 241 241 240 239 239 238 237 237 236 236
305 304 303 302 301 300 300 299 298 296 294 292 291 290 289 288 288 287 287 286 285 284 283 282 281 279 278 277 276 275 274 273 272 271 268 265 263 262 260 258 256 255 255 253 252 251 250 249 248 247 246 244 243 242 241 240 239 239 238 237 237 236 236
305 304 302 301 300 300 300 299 297 295 293 292 291 289 288 287 287 287 286 285 284 284 283 282 281 280 278 277 276 275 274 273 271 270 268 265 262 261 260 258 257 255 254 253 252 251 250 249 248 247 246 245 243 242 241 240 239 239 238 238 237 237 236